{"data":{"norad_id":44529,"epoch":"2026-09-20T03:19:54.296832Z","epoch_age_seconds":42224,"freshness":"FRESH","line1":"1 44529U 19059B   26263.13882288  .00000224  00000+0  72010-4 0  9998","line2":"2 44529  98.6192  34.0526 0014426  86.5875 273.6968 14.48446819370737","mean_motion":14.48446819,"eccentricity":0.0014426,"inclination_deg":98.6192,"raan_deg":34.0526,"arg_perigee_deg":86.5875,"mean_anomaly_deg":273.6968,"bstar":7.201e-5,"rev_number":37073,"period_min":99.416836097177,"perigee_km":720.4706517376,"apogee_km":740.98114296904,"semimajor_km":7108.8628973533,"source":"CELESTRAK","updated_at":"2026-09-20T09:00:14.532234Z"}}